Tracking 30260 objects as of 14-Feb-2025
HD Live streaming from Space Station
objects crossing your sky now

CZ-4 DEB

Track CZ-4 DEB now!
10-day predictions


NORAD ID: 37610
Int'l Code: 1990-081CW
Perigee: 867.6 km
Apogee: 1,091.0 km
Inclination: 99.1 °
Period: 104.5 minutes
Semi major axis: 7350 km
RCS: 0.0013 m2 (small)
Launch date: September 3, 1990
Source: People's Republic of China (PRC)
Launch site: Taiyaun Space Center, China (TSC)

Note: This is SATELLITE DEBRIS
Your satellite tracking list
Your tracking list is empty




NASA's NSSDC Master Catalog

Two Line Element Set (TLE):
1 37610U 90081CW  25043.49861523  .00000654  00000-0  63923-3 0  9998
2 37610  99.1438 313.3263 0151963  75.0506 286.7414 13.77660836 98716
Source of the keplerian elements: AFSPC